TimeCDT,TemperatureF,Dew PointF,Humidity,Sea Level PressureIn,VisibilityMPH,Wind Direction,Wind SpeedMPH,Gust SpeedMPH,PrecipitationIn,Events,Conditions,WindDirDegrees,DateUTC
12:15 AM,57.2,32.0,38,29.93,10.0,NNW,10.4,-,N/A,,Clear,340,2012-10-02 05:15:00
12:35 AM,55.9,32.0,40,29.93,10.0,NNW,8.1,-,N/A,,Clear,340,2012-10-02 05:35:00
12:55 AM,55.0,32.0,42,29.93,10.0,NNW,8.1,-,N/A,,Clear,340,2012-10-02 05:55:00
1:15 AM,54.1,32.0,43,29.93,10.0,NNW,6.9,-,N/A,,Clear,340,2012-10-02 06:15:00
1:35 AM,53.2,32.4,45,29.93,10.0,NNW,6.9,-,N/A,,Clear,340,2012-10-02 06:35:00
1:55 AM,53.4,32.5,45,29.93,10.0,NNW,5.8,-,N/A,,Clear,340,2012-10-02 06:55:00
2:15 AM,49.6,32.7,52,29.94,10.0,NW,6.9,-,N/A,,Clear,320,2012-10-02 07:15:00
2:35 AM,50.0,32.9,52,29.94,10.0,NNW,6.9,-,N/A,,Clear,330,2012-10-02 07:35:00
2:55 AM,50.2,32.9,52,29.94,10.0,NNW,6.9,-,N/A,,Clear,330,2012-10-02 07:55:00
3:15 AM,50.5,32.5,50,29.94,10.0,NNW,5.8,-,N/A,,Clear,330,2012-10-02 08:15:00
3:35 AM,50.4,32.5,50,29.93,10.0,NNW,5.8,-,N/A,,Clear,340,2012-10-02 08:35:00
3:55 AM,48.6,32.5,54,29.94,10.0,NNW,5.8,-,N/A,,Clear,330,2012-10-02 08:55:00
4:15 AM,47.7,32.9,57,29.93,10.0,NNW,6.9,-,N/A,,Clear,340,2012-10-02 09:15:00
4:35 AM,48.6,33.1,55,29.94,10.0,NNW,5.8,-,N/A,,Clear,340,2012-10-02 09:35:00
4:55 AM,46.4,32.9,59,29.94,10.0,NW,5.8,-,N/A,,Clear,320,2012-10-02 09:55:00
5:15 AM,45.5,33.1,62,29.94,10.0,NW,6.9,-,N/A,,Clear,320,2012-10-02 10:15:00
5:35 AM,44.6,33.3,64,29.94,10.0,NW,5.8,-,N/A,,Clear,320,2012-10-02 10:35:00
5:55 AM,44.1,33.1,65,29.94,10.0,NW,5.8,-,N/A,,Clear,320,2012-10-02 10:55:00
6:15 AM,43.3,33.3,68,29.94,10.0,NW,4.6,-,N/A,,Clear,320,2012-10-02 11:15:00
6:35 AM,42.8,33.1,69,29.94,10.0,NW,5.8,-,N/A,,Clear,320,2012-10-02 11:35:00
6:55 AM,43.0,33.1,68,29.94,10.0,NW,6.9,-,N/A,,Clear,320,2012-10-02 11:55:00
7:15 AM,42.8,33.1,69,29.95,5.0,NW,6.9,-,N/A,,Haze,320,2012-10-02 12:15:00
7:35 AM,42.8,33.8,70,29.95,10.0,NW,5.8,-,N/A,,Clear,320,2012-10-02 12:35:00
7:55 AM,44.2,34.3,68,29.96,10.0,NNW,5.8,-,N/A,,Clear,330,2012-10-02 12:55:00
8:15 AM,47.1,34.9,62,29.96,10.0,NW,3.5,-,N/A,,Clear,310,2012-10-02 13:15:00
8:35 AM,49.1,34.7,58,29.96,7.0,NW,5.8,-,N/A,,Clear,320,2012-10-02 13:35:00
8:55 AM,51.6,35.1,53,29.96,10.0,NNW,5.8,-,N/A,,Clear,340,2012-10-02 13:55:00
9:15 AM,54.9,36.5,50,29.96,10.0,Calm,Calm,-,N/A,,Clear,0,2012-10-02 14:15:00
9:35 AM,56.8,38.1,50,29.96,10.0,NNE,3.5,-,N/A,,Clear,30,2012-10-02 14:35:00
9:55 AM,59.0,40.1,50,29.96,10.0,ENE,4.6,-,N/A,,Clear,60,2012-10-02 14:55:00
10:15 AM,61.0,40.6,47,29.97,10.0,NNW,3.5,-,N/A,,Clear,340,2012-10-02 15:15:00
10:35 AM,62.6,42.4,48,29.96,10.0,Calm,Calm,-,N/A,,Clear,0,2012-10-02 15:35:00
10:55 AM,64.2,43.0,46,29.96,10.0,North,3.5,-,N/A,,Clear,350,2012-10-02 15:55:00
11:15 AM,66.0,44.1,45,29.96,10.0,Calm,Calm,-,N/A,,Clear,0,2012-10-02 16:15:00
11:35 AM,67.3,44.1,43,29.95,10.0,North,3.5,-,N/A,,Clear,350,2012-10-02 16:35:00
11:55 AM,69.3,43.2,39,29.94,10.0,Calm,Calm,-,N/A,,Clear,0,2012-10-02 16:55:00
12:15 PM,70.5,43.0,37,29.94,10.0,East,3.5,-,N/A,,Clear,90,2012-10-02 17:15:00
12:35 PM,71.4,41.0,33,29.93,10.0,North,4.6,-,N/A,,Clear,350,2012-10-02 17:35:00
12:55 PM,73.0,39.7,30,29.92,10.0,West,3.5,-,N/A,,Clear,280,2012-10-02 17:55:00
1:15 PM,73.0,39.0,29,29.92,10.0,Calm,Calm,-,N/A,,Clear,0,2012-10-02 18:15:00
1:35 PM,74.5,37.6,26,29.91,10.0,North,9.2,-,N/A,,Clear,350,2012-10-02 18:35:00
1:55 PM,74.3,37.2,26,29.90,10.0,NW,5.8,-,N/A,,Clear,310,2012-10-02 18:55:00
2:15 PM,74.8,37.2,26,29.89,10.0,Calm,Calm,-,N/A,,Clear,0,2012-10-02 19:15:00
2:35 PM,75.6,37.2,25,29.89,10.0,Calm,Calm,-,N/A,,Clear,0,2012-10-02 19:35:00
2:55 PM,76.3,36.7,24,29.88,10.0,Calm,Calm,-,N/A,,Clear,0,2012-10-02 19:55:00
3:15 PM,76.6,36.7,24,29.88,10.0,Calm,Calm,-,N/A,,Clear,0,2012-10-02 20:15:00
3:35 PM,77.0,35.8,22,29.87,10.0,SW,5.8,-,N/A,,Clear,230,2012-10-02 20:35:00
3:55 PM,76.3,35.2,23,29.87,10.0,Calm,Calm,-,N/A,,Clear,0,2012-10-02 20:55:00
4:15 PM,77.2,35.8,22,29.86,10.0,Calm,Calm,-,N/A,,Clear,0,2012-10-02 21:15:00
4:35 PM,76.3,35.2,23,29.86,10.0,Calm,Calm,-,N/A,,Clear,0,2012-10-02 21:35:00
4:55 PM,76.5,36.0,23,29.86,10.0,SE,3.5,-,N/A,,Clear,140,2012-10-02 21:55:00
5:15 PM,76.6,35.8,23,29.86,10.0,SE,3.5,-,N/A,,Clear,130,2012-10-02 22:15:00
5:35 PM,76.1,35.8,23,29.86,10.0,Calm,Calm,-,N/A,,Clear,0,2012-10-02 22:35:00
5:55 PM,75.0,36.1,24,29.86,10.0,Calm,Calm,-,N/A,,Clear,0,2012-10-02 22:55:00
6:15 PM,74.5,35.2,24,29.86,10.0,Calm,Calm,-,N/A,,Clear,0,2012-10-02 23:15:00
6:35 PM,68.5,37.6,32,29.87,10.0,Calm,Calm,-,N/A,,Clear,0,2012-10-02 23:35:00
7:15 PM,61.3,39.0,44,29.87,7.0,West,3.5,-,N/A,,Clear,270,2012-10-03 00:15:00
7:35 PM,58.5,39.2,49,29.87,7.0,West,3.5,-,N/A,,Clear,270,2012-10-03 00:35:00
7:55 PM,57.4,39.2,51,29.88,5.0,West,5.8,-,N/A,,Haze,260,2012-10-03 00:55:00
8:15 PM,61.2,37.6,42,29.88,7.0,WSW,3.5,-,N/A,,Clear,240,2012-10-03 01:15:00
8:35 PM,54.1,38.3,55,29.88,7.0,Calm,Calm,-,N/A,,Clear,0,2012-10-03 01:35:00
8:55 PM,55.6,38.5,53,29.88,4.0,Calm,Calm,-,N/A,,Haze,0,2012-10-03 01:55:00
9:15 PM,52.0,37.9,59,29.89,7.0,Calm,Calm,-,N/A,,Clear,0,2012-10-03 02:15:00
9:35 PM,51.1,38.5,62,29.89,4.0,Calm,Calm,-,N/A,,Haze,0,2012-10-03 02:35:00
9:55 PM,51.1,37.9,61,29.89,4.0,Calm,Calm,-,N/A,,Haze,0,2012-10-03 02:55:00
10:15 PM,51.1,37.8,60,29.89,4.0,Calm,Calm,-,N/A,,Haze,0,2012-10-03 03:15:00
10:35 PM,49.5,38.1,65,29.90,5.0,Calm,Calm,-,N/A,,Haze,0,2012-10-03 03:35:00
10:55 PM,52.3,38.3,59,29.90,4.0,South,3.5,-,N/A,,Haze,190,2012-10-03 03:55:00
11:15 PM,51.3,38.3,61,29.90,5.0,South,3.5,-,N/A,,Haze,190,2012-10-03 04:15:00
11:35 PM,48.7,37.6,65,29.90,7.0,Calm,Calm,-,N/A,,Clear,0,2012-10-03 04:35:00
11:55 PM,49.6,38.3,65,29.90,7.0,Calm,Calm,-,N/A,,Clear,0,2012-10-03 04:55:00